Back to catalog

BEIDOU 3M18

AliveNavigationMEO
NORAD 43707·PAYLOAD·🇨🇳 China

Launched Nov 18, 2018 from Xichang Satellite Launch Center

Loading…

Next Passes (next 24 hours)

TLE

FreshSource: CelesTrak SupGP

Epoch: Sep 12, 2026, 00:00 UTC

1 43707C 18093B   26255.00000000  .00000000  00000+0  00000+0 0  2555
2 43707  54.1669 179.3457 0007448 339.7571 271.8335  1.86226776    13

Track BEIDOU 3M18 in real time with AllMySat

Download on the App Store